Find STARLINK-37367

NORAD ID: 70604 Constellation: starlink operational
LEOCIRCULAR

Live Position

Loading 3D Globe...

About STARLINK-37367

Description loading...

Upcoming Passes

Passes for default location (London). Set your location on the main map for personalized predictions.

Altitude History

Loading altitude history...

Two-Line Element Set

1 70604C 26099W 26122.84979167 .00078850 00000+0 93663-4 0 1223
2 70604 53.1636 22.7692 0006004 287.4857 311.3732 16.07660443 10
Epoch: May 2, 2026 • Age: 30 hours